CFG3KA LEPA-EDDL

Flight info

Callsign CFG3KA
Flight time 1h 57m
Altitude 36000
Route MEROS N853 LUMAS DCT MAXIR DCT LUSOL DCT BODRU DCT OKTET DCT IRMAR DCT KINES DCT VANAS DCT MOBLO DCT UBIMA DCT GILIR DCT PENDU DCT IXILU DCT EPL DCT ROUSY DCT DIK/N0447F370 N853 ARCKY T853 NVO T857 BIKMU BIKMU1A
Aircraft A321/M-SDE3FGHIRWY/LB1

Departure

Time 2026-05-01 12:29
Airport Palma de Mallorca Airport (LEPA)

Arrival

Time 2026-05-01 14:27
Airport Düsseldorf Airport (EDDL)
Time Latitude Longitude Altitude Speed Heading
2026-05-01 11:53 39.54797 2.73601 30 ft 0 kts 58°
2026-05-01 12:20 39.54792 2.73589 30 ft 3 kts 58°
2026-05-01 12:20 39.54782 2.73568 30 ft 3 kts 66°
2026-05-01 12:20 39.54777 2.73544 30 ft 3 kts 97°
2026-05-01 12:21 39.54782 2.73520 30 ft 3 kts 128°
2026-05-01 12:21 39.54788 2.73511 30 ft 0 kts 141°
2026-05-01 12:24 39.54786 2.73513 30 ft 3 kts 141°
2026-05-01 12:25 39.54739 2.73556 30 ft 14 kts 148°
2026-05-01 12:25 39.54566 2.73638 30 ft 8 kts 204°
2026-05-01 12:25 39.54534 2.73586 30 ft 7 kts 238°
2026-05-01 12:26 39.54500 2.73511 30 ft 13 kts 239°
2026-05-01 12:26 39.54367 2.73229 30 ft 11 kts 238°
2026-05-01 12:26 39.54319 2.73181 30 ft 8 kts 168°
2026-05-01 12:27 39.54299 2.73203 30 ft 0 kts 129°
2026-05-01 12:28 39.54277 2.73395 30 ft 19 kts 94°
2026-05-01 12:28 39.54310 2.73555 30 ft 22 kts 60°
2026-05-01 12:28 39.54872 2.74746 31 ft 133 kts 58°
2026-05-01 12:29 39.55435 2.75914 68 ft 168 kts 59°
2026-05-01 12:29 39.56042 2.77230 627 ft 167 kts 61°
2026-05-01 12:29 39.57248 2.79729 1906 ft 162 kts 60°
2026-05-01 12:30 39.58461 2.82233 2916 ft 171 kts 60°
2026-05-01 12:30 39.59094 2.83579 3248 ft 183 kts 60°
2026-05-01 12:30 39.59760 2.85027 3662 ft 190 kts 62°
2026-05-01 12:31 39.60412 2.86579 3947 ft 205 kts 64°
2026-05-01 12:31 39.61097 2.88306 4154 ft 224 kts 64°
2026-05-01 12:31 39.61842 2.90099 4779 ft 226 kts 62°
2026-05-01 12:31 39.62665 2.91838 5407 ft 227 kts 59°
2026-05-01 12:32 39.63517 2.93638 5736 ft 243 kts 63°
2026-05-01 12:32 39.65365 2.97807 6494 ft 278 kts 62°
2026-05-01 12:32 39.66335 2.99957 7235 ft 281 kts 63°
2026-05-01 12:33 39.67279 3.02202 7967 ft 284 kts 63°
2026-05-01 12:33 39.68213 3.04472 8736 ft 287 kts 63°
2026-05-01 12:33 39.69165 3.06764 9445 ft 291 kts 62°
2026-05-01 12:33 39.70148 3.09096 10127 ft 296 kts 61°
2026-05-01 12:34 39.71153 3.11450 10764 ft 301 kts 61°
2026-05-01 12:34 39.72213 3.13912 10970 ft 323 kts 61°
2026-05-01 12:34 39.73347 3.16547 11107 ft 346 kts 61°
2026-05-01 12:34 39.74559 3.19361 11242 ft 366 kts 61°
2026-05-01 12:35 39.75823 3.22291 11671 ft 375 kts 61°
2026-05-01 12:35 39.77114 3.25261 12286 ft 380 kts 58°
2026-05-01 12:35 39.78679 3.27979 12896 ft 383 kts 49°
2026-05-01 12:35 39.80433 3.30608 13532 ft 387 kts 48°
2026-05-01 12:36 39.82208 3.33259 14140 ft 390 kts 48°
2026-05-01 12:36 39.83996 3.35931 14699 ft 393 kts 48°
2026-05-01 12:36 39.85801 3.38637 15247 ft 397 kts 48°
2026-05-01 12:36 39.87616 3.41357 15784 ft 400 kts 48°
2026-05-01 12:37 39.89442 3.44100 16315 ft 403 kts 48°
2026-05-01 12:37 39.91281 3.46865 16846 ft 405 kts 48°
2026-05-01 12:37 39.93135 3.49658 17371 ft 408 kts 49°
2026-05-01 12:37 39.94995 3.52467 17897 ft 411 kts 48°
2026-05-01 12:38 39.96845 3.55266 18407 ft 414 kts 49°
2026-05-01 12:38 39.98733 3.58122 18856 ft 417 kts 49°
2026-05-01 12:38 40.00629 3.60994 19294 ft 420 kts 49°
2026-05-01 12:38 40.02542 3.63892 19722 ft 422 kts 49°
2026-05-01 12:39 40.04467 3.66803 20150 ft 425 kts 49°
2026-05-01 12:39 40.06404 3.69736 20583 ft 427 kts 49°
2026-05-01 12:39 40.08349 3.72685 21015 ft 430 kts 49°
2026-05-01 12:39 40.10305 3.75660 21453 ft 432 kts 49°
2026-05-01 12:40 40.12266 3.78646 21900 ft 435 kts 49°
2026-05-01 12:40 40.14213 3.81615 22324 ft 437 kts 49°
2026-05-01 12:40 40.16196 3.84644 22740 ft 439 kts 49°
2026-05-01 12:40 40.18190 3.87690 23157 ft 442 kts 49°
2026-05-01 12:41 40.20195 3.90754 23569 ft 445 kts 49°
2026-05-01 12:41 40.22210 3.93835 23927 ft 447 kts 49°
2026-05-01 12:41 40.24239 3.96943 24257 ft 450 kts 49°
2026-05-01 12:41 40.26281 4.00069 24565 ft 453 kts 49°
2026-05-01 12:42 40.28334 4.03215 24882 ft 456 kts 49°
2026-05-01 12:42 40.30398 4.06382 25197 ft 458 kts 49°
2026-05-01 12:42 40.32470 4.09570 25516 ft 461 kts 49°
2026-05-01 12:42 40.34524 4.12735 25820 ft 463 kts 49°
2026-05-01 12:43 40.36619 4.15962 26127 ft 465 kts 49°
2026-05-01 12:43 40.38721 4.19199 26424 ft 467 kts 49°
2026-05-01 12:43 40.40835 4.22457 26733 ft 470 kts 49°
2026-05-01 12:43 40.42952 4.25731 27019 ft 472 kts 49°
2026-05-01 12:44 40.45081 4.29026 27317 ft 474 kts 49°
2026-05-01 12:44 40.47382 4.32134 27600 ft 475 kts 39°
2026-05-01 12:44 40.52975 4.36710 28240 ft 474 kts 21°
2026-05-01 12:45 40.59304 4.38888 29016 ft 470 kts
2026-05-01 12:45 40.62521 4.39654 29399 ft 469 kts
2026-05-01 12:45 40.65688 4.40411 29780 ft 469 kts
2026-05-01 12:46 40.68899 4.41179 30167 ft 468 kts
2026-05-01 12:46 40.72105 4.41943 30512 ft 468 kts
2026-05-01 12:46 40.75302 4.42708 30839 ft 467 kts
2026-05-01 12:46 40.78499 4.43478 31175 ft 466 kts
2026-05-01 12:47 40.81695 4.44252 31516 ft 466 kts
2026-05-01 12:47 40.84887 4.45023 31843 ft 465 kts
2026-05-01 12:47 40.88030 4.45780 32194 ft 464 kts
2026-05-01 12:47 40.91205 4.46545 32525 ft 464 kts
2026-05-01 12:48 40.94378 4.47311 32874 ft 463 kts
2026-05-01 12:48 40.97543 4.48079 33221 ft 462 kts
2026-05-01 12:48 41.00701 4.48848 33576 ft 461 kts
2026-05-01 12:48 41.03852 4.49617 33923 ft 460 kts
2026-05-01 12:49 41.07001 4.50383 34264 ft 460 kts
2026-05-01 12:49 41.10147 4.51146 34550 ft 459 kts
2026-05-01 12:49 41.13284 4.51907 34842 ft 458 kts
2026-05-01 12:49 41.16423 4.52669 35131 ft 457 kts
2026-05-01 12:50 41.19549 4.53429 35403 ft 457 kts
2026-05-01 12:50 41.22673 4.54189 35671 ft 456 kts
2026-05-01 12:50 41.25798 4.54955 35945 ft 456 kts
2026-05-01 12:50 41.28917 4.55721 36180 ft 456 kts
2026-05-01 12:51 41.35107 4.57240 36241 ft 454 kts
2026-05-01 12:52 41.44428 4.59521 36253 ft 453 kts
2026-05-01 12:52 41.53735 4.61826 36249 ft 453 kts
2026-05-01 12:53 41.63040 4.64119 36267 ft 453 kts
2026-05-01 12:54 41.69206 4.65643 36268 ft 454 kts
2026-05-01 12:54 41.75223 4.68265 36268 ft 459 kts 25°
2026-05-01 12:54 41.77991 4.70408 36274 ft 460 kts 28°
2026-05-01 12:55 41.86230 4.77034 36274 ft 460 kts 28°
2026-05-01 12:56 41.91716 4.81440 36275 ft 460 kts 28°
2026-05-01 12:56 41.97198 4.85860 36286 ft 459 kts 28°
2026-05-01 12:57 42.02669 4.90288 36283 ft 459 kts 28°
2026-05-01 12:57 42.10828 4.96901 36289 ft 458 kts 28°
2026-05-01 12:58 42.16278 5.01339 36299 ft 458 kts 28°
2026-05-01 12:59 42.24568 5.07642 36303 ft 455 kts 23°
2026-05-01 12:59 42.33141 5.13117 36293 ft 454 kts 22°
2026-05-01 13:00 42.41718 5.18576 36295 ft 454 kts 22°
2026-05-01 13:01 42.50227 5.24078 36294 ft 454 kts 22°
2026-05-01 13:02 42.58769 5.29628 36297 ft 453 kts 22°
2026-05-01 13:07 43.20680 5.70214 36301 ft 449 kts 23°
2026-05-01 13:08 43.26307 5.73941 36297 ft 449 kts 23°
2026-05-01 13:08 43.31935 5.77673 36294 ft 449 kts 22°
2026-05-01 13:09 43.37562 5.81423 36299 ft 450 kts 23°
2026-05-01 13:09 43.43180 5.85194 36296 ft 449 kts 23°
2026-05-01 13:10 43.48804 5.88968 36293 ft 449 kts 23°
2026-05-01 13:10 43.54390 5.92706 36290 ft 449 kts 23°
2026-05-01 13:11 43.59995 5.96473 36296 ft 449 kts 23°
2026-05-01 13:11 43.65606 6.00244 36299 ft 448 kts 23°
2026-05-01 13:12 43.71215 6.04012 36299 ft 448 kts 23°
2026-05-01 13:12 43.76815 6.07804 36303 ft 448 kts 23°
2026-05-01 13:13 43.82404 6.11599 36306 ft 447 kts 23°
2026-05-01 13:13 43.87997 6.15393 36307 ft 447 kts 23°
2026-05-01 13:14 43.93585 6.19194 36304 ft 447 kts 23°
2026-05-01 13:14 43.99159 6.23001 36305 ft 447 kts 23°
2026-05-01 13:15 44.04707 6.26794 36301 ft 446 kts 23°
2026-05-01 13:15 44.10288 6.30608 36296 ft 446 kts 23°
2026-05-01 13:16 44.14917 6.33781 36290 ft 446 kts 24°
2026-05-01 13:16 44.21384 6.38228 36292 ft 446 kts 24°
2026-05-01 13:17 44.31568 6.45255 36289 ft 445 kts 24°
2026-05-01 13:18 44.39895 6.51025 36285 ft 445 kts 24°
2026-05-01 13:18 44.45495 6.54902 36276 ft 454 kts 24°
2026-05-01 13:19 44.51182 6.58853 36280 ft 457 kts 24°
2026-05-01 13:20 44.59692 6.64796 36285 ft 457 kts 24°
2026-05-01 13:20 44.65382 6.68776 36294 ft 457 kts 24°
2026-05-01 13:21 44.73915 6.74761 36317 ft 457 kts 24°
2026-05-01 13:21 44.79782 6.78052 36321 ft 452 kts 10°
2026-05-01 13:22 44.85961 6.78654 36320 ft 447 kts 355°
2026-05-01 13:22 44.92222 6.78215 36318 ft 448 kts 355°
2026-05-01 13:23 44.98452 6.77821 36309 ft 448 kts 355°
2026-05-01 13:23 45.04655 6.77425 36314 ft 449 kts 356°
2026-05-01 13:24 45.10905 6.77014 36311 ft 450 kts 355°
2026-05-01 13:25 45.20302 6.76388 36304 ft 451 kts 355°
2026-05-01 13:25 45.26580 6.75973 36302 ft 452 kts 355°
2026-05-01 13:26 45.32862 6.75549 36298 ft 452 kts 355°
2026-05-01 13:26 45.39158 6.75127 36295 ft 453 kts 355°
2026-05-01 13:27 45.45457 6.74706 36287 ft 454 kts 355°
2026-05-01 13:27 45.54889 6.74067 36281 ft 454 kts 356°
2026-05-01 13:28 45.64386 6.73417 36279 ft 456 kts 355°
2026-05-01 13:29 45.77091 6.72531 36278 ft 458 kts 356°
2026-05-01 13:31 45.96171 6.71221 36275 ft 459 kts 356°
2026-05-01 13:32 46.12156 6.69943 36273 ft 460 kts 348°
2026-05-01 13:33 46.27371 6.62962 36272 ft 460 kts 340°
2026-05-01 13:34 46.39492 6.57038 36273 ft 462 kts 340°
2026-05-01 13:35 46.48636 6.52565 36274 ft 463 kts 340°
2026-05-01 13:36 46.57804 6.48063 36276 ft 464 kts 340°
2026-05-01 13:36 46.66983 6.43522 36278 ft 465 kts 340°
2026-05-01 13:37 46.73069 6.40504 36276 ft 466 kts 340°
2026-05-01 13:37 46.79207 6.37467 36275 ft 466 kts 340°
2026-05-01 13:38 46.88434 6.32882 36268 ft 467 kts 340°
2026-05-01 13:39 46.94595 6.29810 36269 ft 468 kts 340°
2026-05-01 13:39 47.00764 6.26720 36263 ft 468 kts 340°
2026-05-01 13:40 47.06901 6.23506 36256 ft 468 kts 334°
2026-05-01 13:40 47.12752 6.19304 36255 ft 468 kts 333°
2026-05-01 13:41 47.18603 6.15066 36254 ft 469 kts 333°
2026-05-01 13:41 47.24462 6.10834 36250 ft 470 kts 333°
2026-05-01 13:42 47.30289 6.06610 36246 ft 470 kts 333°
2026-05-01 13:42 47.36512 6.03687 36241 ft 472 kts 352°
2026-05-01 13:43 47.43079 6.03454 36243 ft 473 kts
2026-05-01 13:43 47.49679 6.03604 36246 ft 474 kts
2026-05-01 13:44 47.56277 6.03741 36248 ft 474 kts
2026-05-01 13:44 47.62834 6.03892 36253 ft 474 kts
2026-05-01 13:45 47.69440 6.04046 36256 ft 474 kts
2026-05-01 13:45 47.76045 6.04195 36258 ft 474 kts
2026-05-01 13:46 47.82654 6.04377 36261 ft 475 kts
2026-05-01 13:46 47.89255 6.04599 36262 ft 475 kts
2026-05-01 13:47 47.95861 6.04822 36261 ft 475 kts
2026-05-01 13:47 48.02421 6.05026 36265 ft 475 kts
2026-05-01 13:48 48.09028 6.05228 36266 ft 475 kts
2026-05-01 13:48 48.15635 6.05441 36266 ft 474 kts
2026-05-01 13:49 48.22242 6.05647 36262 ft 474 kts
2026-05-01 13:49 48.28839 6.05855 36261 ft 474 kts
2026-05-01 13:50 48.35435 6.06076 36262 ft 474 kts
2026-05-01 13:50 48.41984 6.06382 36262 ft 473 kts
2026-05-01 13:51 48.48567 6.06723 36289 ft 473 kts
2026-05-01 13:51 48.55154 6.07050 36291 ft 473 kts
2026-05-01 13:52 48.61730 6.07355 36292 ft 473 kts
2026-05-01 13:52 48.68309 6.07666 36290 ft 472 kts
2026-05-01 13:53 48.74881 6.07969 36291 ft 472 kts
2026-05-01 13:53 48.84743 6.08433 36288 ft 472 kts
2026-05-01 13:54 48.91307 6.08753 36287 ft 472 kts
2026-05-01 13:54 48.97876 6.09076 36289 ft 472 kts
2026-05-01 13:55 49.04404 6.09393 36289 ft 472 kts
2026-05-01 13:55 49.10967 6.09715 36286 ft 472 kts
2026-05-01 13:56 49.17539 6.10029 36286 ft 472 kts
2026-05-01 13:56 49.24115 6.10339 36287 ft 472 kts
2026-05-01 13:57 49.29577 6.10599 36289 ft 472 kts
2026-05-01 13:57 49.37254 6.10976 36288 ft 472 kts
2026-05-01 13:58 49.43825 6.11296 36286 ft 472 kts
2026-05-01 13:58 49.50398 6.11620 36287 ft 472 kts
2026-05-01 13:59 49.56921 6.11886 36291 ft 472 kts
2026-05-01 13:59 49.63484 6.12122 36293 ft 471 kts
2026-05-01 14:00 49.70038 6.12356 36294 ft 471 kts
2026-05-01 14:00 49.76586 6.12606 36293 ft 470 kts
2026-05-01 14:01 49.83129 6.12868 36288 ft 470 kts
2026-05-01 14:01 49.89677 6.13074 36289 ft 470 kts 360°
2026-05-01 14:02 49.96217 6.13098 36298 ft 470 kts 359°
2026-05-01 14:02 50.02705 6.13083 36292 ft 469 kts 359°
2026-05-01 14:03 50.09227 6.13101 36285 ft 469 kts 359°
2026-05-01 14:03 50.15755 6.13143 36286 ft 468 kts 359°
2026-05-01 14:04 50.22274 6.13181 36287 ft 468 kts 359°
2026-05-01 14:04 50.27667 6.13735 36282 ft 469 kts 11°
2026-05-01 14:05 50.31832 6.15727 36281 ft 469 kts 23°
2026-05-01 14:05 50.34718 6.18095 36056 ft 467 kts 32°
2026-05-01 14:05 50.37442 6.20827 34867 ft 464 kts 32°
2026-05-01 14:05 50.40139 6.23599 33572 ft 461 kts 33°
2026-05-01 14:06 50.42788 6.26353 32790 ft 457 kts 33°
2026-05-01 14:06 50.45456 6.29135 31828 ft 463 kts 34°
2026-05-01 14:06 50.48144 6.31944 30905 ft 466 kts 34°
2026-05-01 14:06 50.50879 6.34746 29755 ft 472 kts 33°
2026-05-01 14:07 50.53677 6.37434 28704 ft 473 kts 31°
2026-05-01 14:07 50.56524 6.40033 27609 ft 474 kts 30°
2026-05-01 14:07 50.59405 6.42596 26426 ft 475 kts 30°
2026-05-01 14:08 50.64976 6.47576 24906 ft 460 kts 31°
2026-05-01 14:08 50.67734 6.50094 24179 ft 457 kts 31°
2026-05-01 14:08 50.70473 6.52624 23394 ft 454 kts 32°
2026-05-01 14:08 50.73185 6.55152 22559 ft 451 kts 32°
2026-05-01 14:09 50.75878 6.57675 21744 ft 448 kts 32°
2026-05-01 14:09 50.78550 6.60177 20957 ft 446 kts 32°
2026-05-01 14:09 50.81299 6.62440 20179 ft 445 kts 24°
2026-05-01 14:09 50.84235 6.63958 19425 ft 445 kts 14°
2026-05-01 14:10 50.87292 6.64741 18690 ft 445 kts
2026-05-01 14:10 50.90352 6.65377 17881 ft 443 kts
2026-05-01 14:10 50.93402 6.66020 17071 ft 441 kts
2026-05-01 14:10 50.96432 6.66668 16332 ft 438 kts
2026-05-01 14:11 50.99425 6.67313 15782 ft 430 kts
2026-05-01 14:11 51.04301 6.67773 15259 ft 418 kts 358°
2026-05-01 14:11 51.07199 6.67536 15272 ft 417 kts 358°
2026-05-01 14:12 51.10084 6.67041 15268 ft 418 kts 350°
2026-05-01 14:12 51.13754 6.65234 15272 ft 418 kts 338°
2026-05-01 14:12 51.16452 6.63464 15016 ft 418 kts 338°
2026-05-01 14:12 51.18271 6.62268 14806 ft 417 kts 338°
2026-05-01 14:13 51.20940 6.60514 14527 ft 415 kts 338°
2026-05-01 14:13 51.23572 6.58784 14249 ft 412 kts 338°
2026-05-01 14:13 51.26185 6.57070 13910 ft 402 kts 338°
2026-05-01 14:13 51.28745 6.55365 13487 ft 395 kts 335°
2026-05-01 14:14 51.31148 6.53329 13074 ft 388 kts 332°
2026-05-01 14:14 51.33626 6.51872 12660 ft 370 kts 349°
2026-05-01 14:14 51.36118 6.51640 12256 ft 350 kts
2026-05-01 14:14 51.38441 6.52453 11717 ft 336 kts 23°
2026-05-01 14:15 51.40461 6.54153 11181 ft 322 kts 39°
2026-05-01 14:15 51.42072 6.56529 10638 ft 309 kts 55°
2026-05-01 14:15 51.43091 6.59434 10304 ft 289 kts 75°
2026-05-01 14:15 51.43448 6.62509 10048 ft 277 kts 93°
2026-05-01 14:16 51.43174 6.65489 9758 ft 267 kts 112°
2026-05-01 14:16 51.42347 6.68075 9471 ft 257 kts 130°
2026-05-01 14:16 51.41104 6.70066 9191 ft 251 kts 146°
2026-05-01 14:16 51.39604 6.71330 8910 ft 245 kts 162°
2026-05-01 14:17 51.37958 6.71841 8668 ft 238 kts 176°
2026-05-01 14:17 51.36329 6.71608 8433 ft 235 kts 192°
2026-05-01 14:17 51.34806 6.70675 8162 ft 236 kts 207°
2026-05-01 14:17 51.33497 6.69089 7836 ft 237 kts 222°
2026-05-01 14:18 51.32508 6.66967 7510 ft 239 kts 236°
2026-05-01 14:18 51.31669 6.64668 7204 ft 239 kts 236°
2026-05-01 14:18 51.30830 6.62385 6894 ft 237 kts 235°
2026-05-01 14:18 51.29995 6.60130 6576 ft 235 kts 235°
2026-05-01 14:19 51.29120 6.57929 6254 ft 235 kts 233°
2026-05-01 14:19 51.28235 6.55749 5926 ft 233 kts 234°
2026-05-01 14:19 51.27355 6.53593 5597 ft 231 kts 233°
2026-05-01 14:19 51.26485 6.51456 5277 ft 227 kts 233°
2026-05-01 14:20 51.25632 6.49359 4956 ft 225 kts 233°
2026-05-01 14:20 51.23986 6.45299 4274 ft 209 kts 232°
2026-05-01 14:20 51.23225 6.43376 3968 ft 207 kts 231°
2026-05-01 14:21 51.22145 6.41983 3644 ft 199 kts 196°
2026-05-01 14:21 51.20818 6.41950 3362 ft 191 kts 161°
2026-05-01 14:21 51.19753 6.43200 3190 ft 192 kts 136°
2026-05-01 14:22 51.17983 6.46396 3007 ft 193 kts 128°
2026-05-01 14:22 51.17402 6.48336 3010 ft 197 kts 108°
2026-05-01 14:22 51.17307 6.50521 3003 ft 201 kts 87°
2026-05-01 14:22 51.17756 6.52654 3007 ft 207 kts 65°
2026-05-01 14:23 51.18618 6.54533 3024 ft 211 kts 58°
2026-05-01 14:23 51.19476 6.56303 2948 ft 198 kts 57°
2026-05-01 14:23 51.20315 6.58045 2748 ft 192 kts 58°
2026-05-01 14:23 51.21113 6.59707 2525 ft 191 kts 58°
2026-05-01 14:24 51.21916 6.61381 2264 ft 188 kts 58°
2026-05-01 14:24 51.22679 6.62965 2049 ft 170 kts 58°
2026-05-01 14:24 51.23368 6.64400 1813 ft 157 kts 59°
2026-05-01 14:24 51.24002 6.65726 1618 ft 145 kts 59°
2026-05-01 14:25 51.24611 6.67002 1417 ft 145 kts 58°
2026-05-01 14:25 51.25219 6.68272 1231 ft 143 kts 59°
2026-05-01 14:25 51.25817 6.69527 1043 ft 142 kts 61°
2026-05-01 14:25 51.26415 6.70777 842 ft 141 kts 59°
2026-05-01 14:26 51.27006 6.72014 671 ft 139 kts 58°
2026-05-01 14:26 51.28158 6.74417 260 ft 133 kts 58°
2026-05-01 14:26 51.28716 6.75580 118 ft 128 kts 60°
2026-05-01 14:27 51.29151 6.76518 115 ft 77 kts 52°
2026-05-01 14:27 51.29383 6.76998 116 ft 43 kts 53°
2026-05-01 14:27 51.29533 6.77328 116 ft 30 kts 55°
2026-05-01 14:28 51.29533 6.77861 115 ft 22 kts 137°
2026-05-01 14:28 51.29434 6.77981 116 ft 16 kts 143°
2026-05-01 14:28 51.29342 6.78090 117 ft 16 kts 144°
2026-05-01 14:28 51.29251 6.78197 117 ft 17 kts 149°
2026-05-01 14:29 51.29148 6.78157 117 ft 16 kts 228°
2026-05-01 14:29 51.29079 6.78015 118 ft 16 kts 232°
2026-05-01 14:30 51.28882 6.77608 116 ft 15 kts 232°
2026-05-01 14:30 51.28819 6.77474 117 ft 15 kts 233°
2026-05-01 14:30 51.28757 6.77342 116 ft 15 kts 233°
2026-05-01 14:31 51.28565 6.76942 116 ft 28 kts 231°
2026-05-01 14:31 51.28451 6.76706 113 ft 26 kts 233°
2026-05-01 14:31 51.28350 6.76489 116 ft 23 kts 232°
2026-05-01 14:31 51.28262 6.76302 116 ft 19 kts 233°
2026-05-01 14:32 51.28199 6.76242 117 ft 8 kts 165°
2026-05-01 14:32 51.28159 6.76286 116 ft 5 kts 139°
2026-05-01 14:32 51.28122 6.76296 114 ft 8 kts 182°
2026-05-01 14:32 51.28074 6.76289 116 ft 4 kts 185°
2026-05-01 14:33 51.28058 6.76287 115 ft 1 kts 185°
2026-05-01 14:33 51.28057 6.76287 115 ft 0 kts 185°